Home   Weather   Peterborough   Past weeks

Flag for United Kingdom Past Weather in Peterborough, England, United Kingdom — Yesterday and Last 2 Weeks

Now
37 °F

Partly sunny.


Feels Like: 37 °F
Forecast: 29 / 39 °F
Wind: 2 mph from East

Location: Wittering

Current Time: Dec 5, 2016 at 12:45:52 pm

Latest Report: Dec 5, 2016 at 11:50 am


Visibility: 4 mi

Pressure: 30.24 "Hg

Humidity: 93%

Dew Point: 36 °F

Location of PeterboroughLocation

Past Weather in Peterborough — Graph

°F

Peterborough Temperature Yesterday

Maximum temperature yesterday: 43 °F (at 11:50 am)
Minimum temperature yesterday: 30 °F (at 11:50 pm)
Average temperature yesterday: 37 °F

High & Low Weather Summary for the Past Weeks

 TemperatureHumidityPressure
High52 °F (Nov 21, 3:50 pm)100% (Nov 20, 11:50 am)30.54 "Hg (Nov 20, 11:50 am)
Low27 °F (Nov 29, 4:50 am)53% (Nov 28, 12:50 pm)29.06 "Hg (Nov 21, 2:50 pm)
Average41 °F89%30.14 "Hg
* Reported Nov 20 11:50 am — Dec 5 11:50 am, Peterborough, Weather by CustomWeather, © 2016

Note: Actual official high and low records may vary slightly from our data, if they occured in-between our weather recording intervals... More about our weather records

Advertising

Peterborough Weather History for the Previous 24 Hours

Scroll right to see more
 ConditionsComfort  
Time TempWeatherWind HumidityBarometerVisibility
11:50 am
Mon, Dec 5
37 °FPartly sunny.2 mph93%30.24 "Hg4 mi
10:50 am37 °FPartly sunny.2 mph93%30.24 "Hg2 mi
9:50 am32 °FIce fog.No wind100%30.24 "Hg2 mi
8:50 am30 °FIce fog.1 mph100%30.24 "Hg2 mi
7:50 am30 °FPassing clouds.3 mph100%30.24 "Hg2 mi
6:50 am28 °FIce fog.7 mph100%30.21 "Hg2 mi
5:50 am30 °FIce fog.7 mph93%30.21 "Hg3 mi
4:50 am30 °FIce fog.3 mph100%30.21 "Hg4 mi
3:50 am30 °FIce fog.7 mph93%30.21 "Hg4 mi
2:50 am30 °FIce fog.6 mph93%30.21 "Hg6 mi
1:50 am30 °FChilly.5 mph100%30.21 "HgN/A
12:50 am30 °FChilly.9 mph93%30.21 "HgN/A
11:50 pm
Sun, Dec 4
30 °FChilly.8 mph93%30.24 "HgN/A
10:50 pm32 °FChilly.9 mph93%30.24 "HgN/A
9:50 pm36 °FChilly.10 mph87%30.24 "HgN/A
8:50 pm34 °FChilly.13 mph93%30.24 "HgN/A
7:50 pm34 °FChilly.14 mph93%30.24 "HgN/A
6:50 pm36 °FChilly.12 mph87%30.24 "HgN/A
5:50 pm36 °FChilly.12 mph87%30.24 "HgN/A
4:50 pm36 °FChilly.10 mph93%30.24 "HgN/A
3:50 pm37 °FChilly.9 mph87%30.24 "HgN/A
2:50 pm41 °FQuite cool.9 mph76%30.24 "HgN/A
1:50 pm43 °FQuite cool.15 mph76%30.24 "HgN/A
12:50 pm43 °FQuite cool.13 mph76%30.24 "HgN/A
Weather by CustomWeather, © 2016

See weather overviewHow to use our weather pages